User: anonymous   Login
Location: Eschertshofen
(49.3064°N, 11.5756°E)
Time: 20:30:36
(UTC+00:00)
Language:

Spot 2 Rocket - Orbit

View from above orbital plane
View from above orbital plane
View from above satellite
View from above satellite

Ground track
Ground track

The orbit data is extracted from the following two-line orbital elements,

1 20443U 90005H   21216.16647299  .00000017  00000-0  20024-4 0  9993
2 20443  98.5260 282.0792 0010328 186.3327 173.7731 14.38137002651436
Epoch (UTC): 04 August 2021 03:59:43
Eccentricity: 0.0010328
inclination: 98.5260°
perigee height: 757 km
apogee height: 772 km
right ascension of ascending node: 282.0792°
argument of perigee: 186.3327°
revolutions per day: 14.38137002
mean anomaly at epoch: 173.7731°
orbit number at epoch: 65143

The dashed part of the orbit path shows where the satellite is in the earth's shadow,  

DLR